Weather in Vals-les-Bains

France     44˚39′33″N   4˚22′01″E
temp.,
°C
wind,
m/s
gust,
m/s
humid.,
%
clouds,
%
prec.,
mm/h
press.,
hPa
HPBL,
m
16 january, sat
sat1601:00−5˚nnw598059 0.3 1027543
04:00−5˚nnw588159 0.0 1027412
07:00−6˚nw578275 0.1 1028305
10:00−4˚nw467198 0.0 1027241
13:00nw465581 0.0 1026424
16:00nnw375862 0.0 1026526
19:00−2˚nw366355 0.0 1026224
22:00−1˚nw358989 0.3 1026202
17 january, sun
sun1701:00+1˚nw299693 1.9 1024479
04:00+3˚nw41395100 1.5 1021741
07:00+3˚nnw2994100 2.4 1021542
10:00+2˚nnw4108480 0.1 1022920
13:00+3˚nnw5107671 0.1 10231029
16:00+2˚nnw6117945 0.1 10231130
19:00−1˚nnw4138942 0.1 1026891
22:00−2˚nnw4118560 0.1 1027846
18 january, mon
mon1801:00−2˚nnw488653 0.1 1029534
04:00−2˚nnw368756 0.0 1028344
07:00−2˚nnw378551 0.1 1029489
10:00−1˚nnw477837 0.0 1029428
13:00+2˚nnw366630 0.0 1028535
16:00+1˚nnw247019 0.0 1026402
19:00−3˚nw33829 0.0 102864
22:00−2˚nw22690 0.0 102832
19 january, tue
tue1901:00−2˚nw12570 0.0 102822
04:00−2˚wnw11481 0.0 102621
07:00−3˚sw11483 0.0 102621
10:00s12504 0.0 1025121
13:00+2˚sse355627 0.0 1022397
16:00+1˚s367668 0.0 1020389
19:00s359482 0.0 1021256
22:00+1˚s2599100 0.1 1020289
20 january, wed
wed2001:00+2˚s3899100 0.4 1018402
04:00+3˚sse31199100 0.9 1016536
07:00+3˚sse51399100 2.7 1013886
10:00+4˚sse61499100 3.6 10121075
13:00+5˚sse81699100 6.3 10091368
16:00+5˚sse91798100 0.8 10061576
19:00+5˚sse91899100 1.6 10061597
22:00+5˚sse71599100 3.9 10061332